sat.trackr.live / text

‹ back to catalog

SUPERVIEW-1 03

NORAD 43099 · 2018-002A

PAYLOAD ACTIVE UNKNOWN

§ Identity

Operator
Country
PRC
Launch date
2018-01-09
Launch site
TAISC
Launch vehicle
Mass (kg)
RCS (m²)

External: N2YO · Heavens-Above · Gunter

§ Orbital elements

Epoch: 2026-09-20T04:24:12.346272Z

Period
93.38 min
Inclination
97.3079°
Eccentricity
0.0043532
Mean motion
15.42025029 rev/d
Perigee alt
410.5 km
Apogee alt
469.8 km
Semi-major
6,818.3 km
B*
3.1662e-4
RAAN
348.0432°
Arg perigee
195.7905°
Mean anomaly
164.1988°
Rev number
48,299

§ Raw data

SUPERVIEW-1 031 43099U 18002A   26263.18347623  .00013896  00000+0  31662-3 0  99962 43099  97.3079 348.0432 0043532 195.7905 164.1988 15.42025029482998

JSON: /api/v1/satellites/43099 · /tle

For live sub-satellite position, see the globe view (requires WebGL).

§ Visibility from observer

Set your observer location to see the next 7 days of passes ≥ 10°. The values pass through the URL so the page stays shareable.

No JS? Fill the form by hand. The geolocation button needs JavaScript.

§ Radio — SatNOGS DB

ModeDescriptionDownlinkUplink
FM Mode S STRF 2.263 GHz
FM S-band telemetry 2.275 GHz

2 transmitters · refreshed weekly from db.satnogs.org